Location: Newark
(50.4348°N, 30.5552°E)
Time: 17:40:52
(UTC+00:00)

Altair - Pass Details

Date: 24 January 2020
Orbit: 1502 x 1682 km, 47.2° (Epoch: 22 February)

Event Time Altitude Azimuth Distance (km) Brightness Sun altitude
Rises 04:14:16 0° 167° (SSE) 4,860 10.5 -14.1°
Reaches altitude 10° 04:20:37 10° 138° (SE) 3,913 10.5 -13.1°
Maximum altitude 04:23:23 11° 121° (ESE) 3,810 10.8 -12.7°
Drops below altitude 10° 04:26:11 10° 105° (ESE) 3,938 11.2 -12.2°
Sets 04:32:34 0° 76° (ENE) 4,940 11.3 -11.3°
